{"data":{"norad_id":49452,"epoch":"2026-05-24T23:28:37.173792Z","epoch_age_seconds":70234,"freshness":"FRESH","line1":"1 49452U 21104AW  26144.97820803  .00000569  00000+0  53835-4 0  9993","line2":"2 49452  53.2127 236.6859 0001051  87.4249 272.6863 15.08839640250292","mean_motion":15.0883964,"eccentricity":0.0001051,"inclination_deg":53.2127,"raan_deg":236.6859,"arg_perigee_deg":87.4249,"mean_anomaly_deg":272.6863,"bstar":5.3835e-5,"rev_number":25029,"period_min":95.437577448588,"perigee_km":539.01741999577,"apogee_km":540.47155868483,"semimajor_km":6917.8814893403,"source":"CELESTRAK","updated_at":"2026-05-25T13:38:16.804231Z"}}